GFSGL_500_temp_105.txt.gz
Temp
-13 -13 -14 -13 -13 -14 -14 -14 -14 -14 -14 -14 -15 -14 -15 -15 -15 -15 -15 -16 -15 -15 -16 -16 -17 -17 -19 -20 -21 -22 -22 -22 -22 -21 -22 -22 -23 -23 -23 -23 -22 -22 -22
-14 -13 -13 -14 -14 -14 -14 -14 -14 -15 -14 -14 -14 -14 -14 -15 -15 -15 -15 -15 -16 -16 -17 -18 -19 -20 -22 -23 -23 -23 -23 -23 -22 -22 -22 -22 -23 -23 -23 -22 -22 -22 -22
-13 -13 -13 -13 -14 -14 -14 -14 -14 -14 -14 -14 -14 -14 -15 -15 -15 -15 -16 -16 -17 -18 -18 -19 -20 -22 -23 -23 -23 -23 -23 -22 -23 -22 -22 -22 -22 -23 -22 -23 -22 -22 -22
-14 -13 -14 -14 -14 -14 -14 -14 -13 -13 -14 -14 -15 -15 -15 -15 -15 -16 -17 -17 -18 -18 -19 -20 -21 -22 -22 -22 -22 -22 -22 -22 -22 -22 -22 -22 -23 -23 -23 -23 -23 -23 -23
-14 -14 -14 -14 -14 -14 -13 -13 -14 -14 -14 -15 -15 -15 -15 -15 -16 -17 -17 -18 -18 -18 -19 -19 -20 -20 -21 -21 -21 -21 -21 -21 -22 -22 -22 -22 -23 -23 -23 -23 -23 -24 -24
-14 -14 -14 -14 -13 -13 -14 -14 -14 -14 -14 -14 -15 -15 -15 -16 -17 -18 -18 -18 -19 -19 -19 -19 -20 -20 -20 -20 -20 -20 -21 -21 -21 -22 -22 -22 -23 -23 -23 -24 -24 -24 -24
-14 -14 -14 -13 -13 -13 -14 -14 -14 -14 -14 -15 -14 -15 -16 -18 -19 -19 -19 -19 -19 -19 -19 -20 -20 -20 -20 -20 -21 -21 -21 -21 -21 -21 -22 -23 -23 -23 -24 -24 -24 -24 -25
-14 -14 -13 -13 -14 -14 -14 -14 -14 -15 -15 -15 -14 -16 -18 -19 -19 -19 -19 -19 -19 -19 -19 -19 -20 -20 -20 -20 -20 -21 -21 -21 -22 -22 -22 -23 -23 -24 -24 -24 -24 -25 -25
-14 -14 -14 -14 -14 -14 -14 -14 -14 -15 -15 -15 -17 -19 -19 -19 -19 -20 -19 -19 -20 -20 -20 -20 -20 -20 -20 -20 -20 -21 -21 -22 -22 -22 -23 -23 -24 -24 -24 -24 -25 -25 -25
-14 -14 -14 -14 -14 -14 -14 -14 -15 -15 -16 -18 -19 -19 -20 -20 -20 -20 -20 -20 -20 -20 -20 -20 -20 -20 -20 -20 -20 -21 -21 -22 -22 -23 -24 -24 -24 -24 -24 -24 -25 -25 -25
-14 -14 -14 -14 -14 -14 -14 -15 -15 -16 -18 -20 -20 -20 -20 -20 -20 -20 -20 -20 -20 -20 -20 -20 -20 -20 -20 -20 -21 -21 -21 -21 -22 -23 -23 -24 -24 -24 -25 -25 -25 -25 -26
-14 -14 -14 -14 -14 -14 -15 -15 -16 -18 -20 -21 -21 -20 -20 -20 -20 -20 -20 -20 -20 -20 -20 -20 -20 -20 -21 -21 -21 -21 -22 -22 -22 -23 -23 -24 -24 -25 -25 -25 -26 -26 -26
-15 -15 -15 -14 -14 -15 -15 -16 -18 -20 -21 -21 -21 -21 -21 -21 -20 -20 -20 -20 -20 -20 -20 -20 -20 -21 -21 -21 -21 -22 -22 -22 -22 -23 -23 -24 -24 -25 -25 -26 -26 -26 -26
-15 -15 -14 -14 -15 -15 -16 -17 -20 -22 -22 -22 -22 -22 -21 -21 -21 -21 -20 -20 -20 -20 -20 -20 -21 -21 -21 -21 -22 -22 -22 -22 -23 -23 -24 -24 -25 -25 -25 -26 -26 -26 -26
-15 -15 -14 -15 -15 -16 -16 -19 -21 -23 -23 -22 -22 -22 -22 -22 -21 -21 -21 -21 -21 -21 -21 -21 -21 -21 -21 -21 -22 -22 -23 -23 -23 -24 -24 -24 -25 -25 -25 -26 -26 -26 -26
-15 -15 -15 -15 -15 -16 -18 -21 -23 -23 -23 -23 -22 -22 -22 -22 -21 -21 -21 -21 -21 -21 -21 -21 -21 -21 -22 -22 -22 -23 -23 -24 -24 -24 -24 -24 -25 -25 -25 -26 -26 -26 -26
-15 -15 -15 -15 -16 -17 -20 -22 -24 -24 -23 -23 -23 -22 -22 -22 -21 -21 -21 -21 -21 -21 -21 -22 -22 -22 -22 -23 -23 -24 -24 -24 -25 -25 -25 -25 -25 -26 -26 -26 -26 -26 -26
-15 -15 -15 -16 -16 -18 -21 -23 -23 -24 -24 -24 -23 -23 -22 -22 -22 -21 -21 -21 -21 -21 -22 -22 -23 -23 -23 -24 -24 -25 -25 -26 -26 -26 -25 -25 -25 -26 -26 -26 -26 -26 -26
-15 -15 -16 -16 -17 -19 -22 -23 -23 -24 -24 -23 -23 -23 -22 -22 -21 -21 -22 -22 -22 -22 -22 -23 -23 -23 -24 -24 -25 -26 -26 -27 -27 -27 -26 -26 -26 -26 -26 -26 -26 -26 -26
-15 -16 -16 -16 -17 -19 -22 -23 -23 -24 -24 -23 -23 -23 -23 -22 -22 -22 -22 -22 -22 -23 -23 -23 -23 -23 -24 -25 -26 -26 -27 -28 -28 -27 -27 -26 -26 -26 -26 -26 -26 -26 -26
-15 -16 -16 -16 -17 -20 -22 -23 -23 -24 -24 -23 -23 -23 -23 -23 -22 -22 -23 -23 -23 -23 -23 -24 -24 -25 -26 -27 -26 -27 -27 -28 -27 -27 -27 -26 -26 -26 -26 -26 -26 -26 -26
-16 -16 -16 -16 -17 -20 -22 -23 -23 -24 -24 -24 -23 -23 -23 -23 -23 -23 -23 -23 -23 -24 -24 -25 -25 -26 -26 -27 -27 -27 -27 -27 -28 -27 -27 -26 -26 -27 -26 -26 -26 -26 -26
-16 -16 -16 -16 -17 -20 -22 -23 -23 -24 -24 -23 -23 -23 -23 -23 -23 -23 -23 -24 -24 -25 -26 -27 -27 -26 -26 -26 -26 -26 -26 -27 -27 -27 -26 -26 -26 -27 -27 -27 -27 -27 -27
-16 -16 -16 -16 -17 -19 -22 -23 -23 -23 -23 -23 -23 -23 -24 -24 -24 -23 -24 -24 -25 -27 -27 -28 -27 -27 -26 -26 -26 -26 -26 -26 -26 -26 -26 -26 -27 -27 -27 -27 -27 -27 -26
-16 -16 -17 -17 -17 -19 -21 -23 -23 -23 -23 -23 -23 -24 -24 -24 -24 -24 -25 -25 -26 -27 -28 -28 -28 -28 -27 -27 -26 -26 -26 -26 -26 -26 -26 -26 -27 -27 -27 -27 -27 -27 -27
-16 -16 -17 -17 -17 -19 -21 -22 -23 -23 -24 -23 -24 -24 -24 -24 -24 -24 -25 -26 -27 -27 -28 -28 -28 -28 -28 -28 -28 -27 -27 -27 -27 -27 -27 -28 -28 -27 -27 -27 -27 -27 -27

GFSGL_500_temp_108.txt.gz
Temp
-13 -12 -12 -14 -15 -14 -14 -14 -14 -14 -14 -14 -14 -14 -14 -14 -14 -15 -15 -15 -15 -15 -15 -15 -16 -16 -16 -16 -16 -17 -18 -19 -20 -21 -22 -22 -22 -22 -23 -22 -22 -22 -22
-13 -13 -15 -13 -14 -14 -14 -14 -14 -14 -14 -14 -14 -14 -14 -15 -15 -15 -15 -15 -15 -15 -15 -16 -17 -17 -17 -17 -18 -19 -20 -20 -20 -20 -21 -21 -22 -22 -22 -22 -22 -22 -22
-14 -14 -14 -14 -14 -14 -14 -14 -14 -14 -14 -14 -14 -14 -15 -15 -15 -15 -15 -15 -15 -15 -16 -18 -18 -18 -18 -19 -19 -20 -20 -20 -20 -20 -20 -21 -21 -22 -22 -22 -22 -22 -22
-14 -14 -14 -14 -14 -14 -14 -14 -14 -14 -14 -14 -14 -14 -14 -14 -15 -15 -15 -15 -15 -17 -19 -19 -20 -19 -19 -19 -19 -20 -20 -20 -20 -20 -20 -21 -21 -21 -21 -22 -22 -22 -23
-14 -14 -14 -13 -13 -13 -13 -13 -13 -13 -13 -14 -14 -14 -14 -15 -15 -15 -15 -15 -17 -18 -20 -20 -20 -19 -19 -19 -19 -19 -20 -20 -20 -20 -21 -21 -21 -21 -21 -22 -22 -22 -23
-14 -14 -14 -13 -13 -13 -13 -13 -13 -14 -14 -14 -14 -14 -15 -15 -15 -15 -15 -17 -18 -19 -20 -20 -20 -20 -19 -19 -19 -19 -20 -20 -20 -20 -20 -21 -21 -21 -22 -22 -22 -23 -23
-14 -14 -13 -13 -13 -13 -13 -13 -14 -14 -14 -14 -14 -14 -14 -14 -15 -16 -17 -18 -18 -19 -19 -20 -20 -20 -19 -19 -19 -20 -20 -20 -20 -20 -20 -21 -21 -22 -22 -23 -23 -23 -23
-14 -14 -14 -14 -13 -13 -14 -14 -13 -14 -13 -14 -14 -14 -14 -15 -16 -18 -19 -19 -19 -20 -20 -20 -20 -20 -20 -19 -20 -20 -20 -20 -20 -20 -21 -21 -22 -22 -22 -23 -23 -24 -24
-14 -14 -14 -13 -13 -14 -14 -14 -13 -14 -14 -14 -14 -14 -15 -17 -19 -20 -20 -20 -20 -20 -20 -21 -20 -20 -20 -20 -20 -20 -20 -20 -20 -21 -21 -21 -22 -22 -23 -23 -24 -24 -25
-14 -14 -14 -14 -14 -14 -13 -13 -14 -14 -14 -14 -15 -16 -18 -20 -21 -21 -21 -21 -21 -21 -21 -21 -20 -20 -20 -20 -20 -20 -20 -20 -21 -21 -22 -22 -22 -22 -23 -23 -24 -24 -25
-15 -14 -14 -14 -14 -14 -14 -14 -14 -14 -14 -15 -15 -17 -21 -22 -22 -21 -21 -21 -21 -21 -21 -21 -21 -20 -20 -20 -20 -20 -20 -21 -21 -21 -22 -22 -22 -23 -23 -24 -24 -25 -25
-15 -14 -14 -14 -14 -14 -14 -14 -14 -15 -15 -16 -18 -21 -23 -23 -22 -22 -21 -21 -21 -21 -21 -21 -21 -21 -21 -21 -20 -21 -21 -21 -21 -21 -22 -22 -23 -23 -24 -24 -25 -25 -25
-15 -14 -14 -14 -14 -14 -14 -14 -15 -15 -15 -18 -22 -23 -24 -23 -22 -22 -21 -21 -21 -21 -21 -21 -21 -21 -21 -21 -21 -21 -21 -21 -22 -22 -22 -23 -23 -24 -24 -24 -25 -25 -25
-15 -14 -14 -14 -14 -14 -14 -15 -15 -15 -18 -21 -23 -24 -24 -23 -23 -22 -22 -22 -21 -21 -21 -21 -21 -21 -21 -22 -22 -22 -22 -22 -22 -22 -23 -23 -24 -24 -24 -25 -25 -26 -26
-15 -15 -15 -15 -14 -14 -15 -15 -15 -17 -20 -22 -24 -24 -23 -23 -23 -22 -22 -22 -21 -21 -22 -22 -22 -21 -22 -22 -22 -22 -23 -23 -23 -23 -24 -24 -24 -24 -25 -25 -25 -26 -26
-15 -15 -15 -15 -14 -15 -15 -15 -16 -18 -21 -23 -23 -23 -23 -23 -23 -22 -22 -22 -22 -22 -22 -22 -22 -22 -22 -22 -23 -23 -23 -23 -24 -24 -25 -25 -25 -25 -25 -25 -26 -26 -26
-15 -15 -15 -15 -15 -15 -15 -16 -18 -20 -22 -23 -23 -23 -23 -23 -22 -22 -22 -22 -22 -22 -22 -22 -22 -22 -22 -23 -23 -24 -24 -24 -25 -26 -26 -26 -26 -26 -26 -26 -26 -26 -26
-16 -15 -15 -15 -15 -15 -16 -16 -18 -21 -23 -23 -23 -23 -23 -23 -23 -22 -22 -22 -22 -22 -22 -22 -23 -23 -23 -23 -24 -24 -25 -25 -26 -26 -27 -28 -27 -26 -26 -26 -26 -26 -26
-16 -16 -15 -15 -15 -16 -16 -16 -19 -21 -22 -23 -23 -23 -22 -22 -22 -22 -22 -23 -23 -23 -23 -23 -23 -23 -24 -25 -25 -26 -26 -27 -27 -27 -28 -28 -28 -27 -26 -26 -26 -26 -26
-16 -16 -15 -15 -16 -16 -16 -17 -19 -21 -22 -23 -23 -23 -23 -23 -23 -23 -23 -23 -23 -23 -23 -24 -25 -25 -26 -26 -26 -27 -27 -27 -27 -27 -28 -28 -28 -27 -26 -26 -27 -26 -26
-16 -16 -16 -16 -16 -16 -16 -17 -19 -21 -23 -23 -23 -23 -23 -23 -24 -24 -23 -23 -24 -24 -25 -26 -26 -26 -26 -26 -26 -26 -26 -27 -27 -27 -28 -28 -27 -27 -26 -26 -27 -27 -26
-16 -16 -16 -16 -16 -16 -16 -17 -19 -21 -22 -23 -22 -23 -23 -23 -23 -23 -23 -24 -25 -25 -26 -27 -27 -26 -26 -26 -26 -26 -27 -27 -27 -27 -27 -27 -27 -26 -26 -27 -27 -27 -27
-16 -16 -16 -16 -16 -17 -16 -17 -19 -21 -22 -22 -23 -23 -23 -23 -24 -24 -24 -25 -25 -26 -27 -27 -28 -27 -27 -26 -26 -26 -26 -27 -27 -27 -26 -26 -26 -26 -27 -27 -27 -27 -27
-16 -16 -16 -16 -16 -17 -17 -17 -19 -21 -22 -22 -23 -23 -24 -24 -24 -24 -24 -25 -26 -27 -27 -27 -27 -27 -27 -27 -27 -27 -27 -27 -27 -27 -26 -26 -26 -27 -27 -27 -27 -27 -27
-17 -17 -17 -17 -17 -17 -17 -17 -18 -20 -22 -23 -23 -23 -24 -24 -24 -24 -24 -25 -25 -26 -27 -27 -27 -27 -27 -27 -27 -27 -27 -27 -27 -27 -27 -27 -27 -28 -28 -27 -27 -27 -27
-17 -17 -17 -17 -17 -17 -17 -17 -18 -20 -22 -23 -23 -23 -24 -24 -24 -24 -24 -25 -25 -26 -26 -26 -27 -27 -27 -27 -27 -27 -27 -27 -27 -27 -27 -27 -28 -28 -28 -27 -27 -27 -27

GFSGL_500_temp_111.txt.gz
Temp
-13 -13 -13 -12 -13 -13 -14 -14 -14 -14 -14 -14 -14 -14 -14 -14 -14 -14 -15 -15 -15 -15 -15 -15 -15 -15 -15 -15 -15 -16 -17 -18 -18 -18 -18 -19 -19 -20 -20 -20 -20 -20 -20
-13 -13 -13 -13 -14 -14 -14 -14 -14 -14 -14 -14 -14 -14 -14 -15 -15 -15 -15 -15 -15 -15 -15 -15 -15 -15 -15 -15 -16 -18 -19 -19 -19 -19 -20 -20 -20 -20 -20 -20 -20 -20 -20
-13 -13 -14 -15 -14 -14 -14 -14 -14 -14 -14 -14 -15 -15 -15 -15 -15 -15 -15 -15 -15 -15 -15 -16 -16 -16 -16 -17 -18 -20 -20 -20 -20 -19 -20 -20 -20 -20 -20 -20 -20 -21 -21
-14 -14 -14 -14 -14 -14 -14 -14 -14 -14 -14 -14 -15 -15 -15 -15 -15 -15 -15 -15 -15 -15 -16 -16 -17 -17 -18 -18 -19 -20 -19 -20 -20 -19 -19 -20 -20 -20 -20 -20 -20 -21 -21
-15 -15 -14 -14 -14 -14 -14 -14 -14 -14 -14 -14 -14 -14 -14 -14 -14 -15 -15 -15 -15 -16 -17 -18 -18 -18 -18 -18 -19 -19 -20 -20 -20 -20 -20 -20 -20 -20 -20 -20 -20 -21 -21
-15 -14 -14 -14 -14 -14 -14 -14 -14 -14 -14 -14 -14 -14 -14 -15 -15 -14 -14 -15 -17 -18 -19 -19 -19 -19 -19 -19 -19 -20 -20 -20 -20 -20 -20 -20 -20 -20 -20 -20 -21 -21 -21
-14 -14 -14 -14 -14 -14 -14 -14 -14 -14 -14 -14 -14 -14 -14 -14 -14 -15 -15 -17 -19 -20 -20 -20 -20 -20 -20 -20 -20 -20 -20 -20 -20 -19 -20 -20 -20 -20 -20 -21 -21 -21 -22
-14 -14 -14 -14 -14 -14 -14 -14 -14 -14 -14 -14 -14 -14 -14 -14 -15 -15 -16 -18 -21 -21 -21 -21 -21 -21 -21 -21 -21 -21 -20 -20 -20 -19 -20 -20 -20 -21 -21 -21 -21 -22 -22
-14 -14 -14 -14 -14 -14 -14 -14 -14 -14 -14 -14 -14 -14 -14 -14 -14 -15 -19 -21 -22 -22 -22 -21 -21 -21 -21 -21 -21 -21 -21 -21 -20 -20 -20 -20 -21 -21 -21 -21 -22 -22 -23
-15 -15 -15 -15 -15 -15 -14 -14 -14 -14 -14 -14 -14 -14 -14 -15 -17 -19 -21 -23 -23 -23 -22 -22 -21 -21 -22 -21 -21 -21 -21 -21 -20 -21 -21 -21 -21 -21 -21 -21 -22 -22 -23
-16 -15 -15 -15 -14 -14 -14 -14 -14 -14 -14 -14 -13 -14 -15 -17 -20 -22 -23 -23 -23 -23 -22 -22 -22 -21 -21 -21 -21 -21 -21 -21 -21 -21 -21 -21 -21 -22 -22 -22 -22 -22 -23
-16 -16 -15 -15 -14 -14 -14 -14 -14 -14 -14 -14 -14 -15 -16 -20 -22 -23 -23 -23 -22 -22 -22 -22 -22 -22 -21 -21 -21 -21 -21 -21 -21 -21 -22 -22 -22 -22 -22 -22 -22 -23 -23
-16 -15 -15 -15 -14 -14 -14 -14 -14 -14 -14 -14 -15 -17 -20 -22 -22 -22 -22 -22 -22 -22 -22 -22 -22 -22 -22 -22 -22 -22 -22 -22 -22 -22 -22 -22 -22 -22 -23 -23 -23 -24 -24
-16 -15 -15 -15 -14 -14 -15 -14 -14 -14 -14 -15 -16 -19 -21 -23 -23 -23 -22 -22 -22 -22 -22 -21 -21 -22 -22 -22 -22 -22 -22 -22 -22 -22 -23 -23 -23 -23 -24 -24 -24 -24 -25
-16 -15 -15 -15 -15 -15 -15 -14 -15 -15 -15 -16 -18 -21 -22 -23 -23 -23 -22 -23 -22 -22 -22 -22 -22 -22 -22 -22 -22 -22 -23 -23 -23 -23 -23 -24 -24 -24 -25 -25 -25 -25 -25
-16 -15 -15 -15 -15 -15 -15 -15 -15 -15 -15 -16 -18 -21 -22 -22 -22 -22 -22 -22 -22 -22 -22 -22 -22 -23 -23 -23 -23 -23 -23 -24 -24 -24 -25 -25 -25 -26 -26 -26 -26 -26 -25
-16 -16 -16 -16 -15 -15 -15 -15 -15 -15 -15 -16 -19 -21 -22 -22 -22 -22 -22 -22 -22 -23 -23 -23 -23 -23 -23 -23 -24 -24 -24 -25 -25 -25 -26 -26 -26 -27 -27 -27 -27 -26 -26
-16 -16 -16 -16 -16 -16 -16 -15 -16 -16 -16 -17 -20 -22 -22 -22 -22 -22 -23 -23 -23 -23 -23 -23 -23 -24 -24 -25 -25 -26 -26 -26 -26 -27 -27 -27 -27 -28 -28 -28 -27 -26 -26
-16 -16 -16 -16 -16 -16 -16 -16 -16 -16 -16 -18 -20 -21 -22 -22 -22 -22 -23 -23 -23 -23 -23 -24 -25 -26 -26 -26 -26 -26 -26 -26 -26 -27 -27 -27 -28 -28 -28 -28 -27 -27 -26
-17 -17 -17 -16 -16 -16 -16 -16 -16 -16 -16 -18 -21 -22 -22 -22 -22 -23 -23 -23 -23 -24 -25 -26 -26 -26 -26 -26 -26 -26 -26 -26 -27 -27 -28 -28 -28 -28 -28 -27 -27 -27 -26
-17 -17 -17 -17 -16 -16 -16 -16 -16 -16 -17 -18 -21 -22 -22 -23 -23 -23 -23 -23 -24 -25 -25 -26 -26 -26 -26 -26 -26 -26 -26 -26 -27 -27 -27 -27 -27 -27 -27 -27 -27 -26 -27
-17 -17 -17 -17 -17 -16 -16 -16 -17 -17 -17 -18 -20 -22 -22 -23 -23 -23 -23 -24 -24 -25 -26 -26 -26 -26 -27 -27 -27 -27 -26 -26 -26 -27 -27 -27 -27 -26 -26 -26 -26 -27 -27
-17 -17 -17 -17 -17 -17 -16 -17 -17 -17 -17 -18 -20 -22 -22 -23 -23 -23 -23 -24 -24 -25 -25 -26 -26 -26 -26 -26 -27 -27 -27 -27 -26 -26 -26 -26 -26 -26 -27 -27 -27 -27 -27
-18 -17 -17 -17 -17 -17 -17 -17 -17 -17 -17 -18 -20 -22 -23 -23 -23 -24 -24 -24 -24 -25 -25 -26 -26 -26 -26 -26 -26 -26 -26 -26 -27 -27 -27 -26 -26 -26 -27 -27 -27 -27 -27
-18 -18 -17 -17 -17 -17 -17 -17 -17 -17 -18 -18 -20 -22 -23 -23 -24 -24 -24 -24 -25 -25 -25 -25 -25 -25 -25 -25 -26 -26 -26 -26 -26 -26 -26 -27 -27 -27 -27 -28 -27 -27 -27
-18 -18 -18 -17 -17 -17 -17 -17 -17 -17 -18 -18 -19 -21 -23 -23 -24 -24 -24 -24 -25 -25 -25 -25 -25 -25 -25 -25 -25 -25 -25 -26 -25 -26 -26 -26 -26 -27 -27 -27 -27 -27 -27

GFSGL_500_temp_114.txt.gz
Temp
-14 -14 -14 -13 -13 -13 -13 -13 -13 -13 -13 -14 -14 -14 -13 -14 -14 -14 -14 -14 -14 -14 -14 -14 -14 -14 -14 -15 -15 -15 -15 -15 -15 -15 -15 -17 -19 -19 -20 -20 -19 -19 -19
-14 -13 -13 -13 -13 -13 -14 -14 -14 -14 -14 -14 -14 -14 -14 -14 -14 -14 -14 -15 -14 -15 -15 -15 -15 -15 -15 -15 -16 -16 -16 -16 -16 -17 -18 -20 -20 -20 -20 -20 -19 -19 -19
-14 -13 -13 -14 -14 -15 -15 -14 -14 -14 -14 -14 -14 -14 -14 -14 -15 -15 -15 -15 -15 -15 -15 -15 -15 -15 -15 -16 -16 -17 -17 -18 -19 -19 -20 -21 -21 -21 -20 -20 -20 -20 -19
-14 -14 -15 -15 -15 -14 -14 -14 -14 -14 -14 -14 -14 -14 -14 -15 -15 -15 -15 -15 -15 -15 -15 -15 -16 -16 -17 -18 -18 -19 -19 -19 -19 -19 -20 -20 -20 -21 -20 -20 -20 -20 -20
-15 -15 -14 -14 -14 -14 -14 -14 -14 -14 -14 -14 -14 -15 -15 -15 -15 -14 -14 -14 -15 -15 -16 -16 -17 -18 -19 -20 -20 -20 -20 -20 -20 -20 -20 -20 -21 -21 -20 -20 -20 -20 -20
-15 -14 -14 -14 -14 -14 -14 -14 -14 -14 -14 -14 -14 -14 -14 -14 -14 -14 -14 -14 -15 -15 -16 -18 -20 -21 -21 -21 -21 -20 -20 -20 -20 -20 -20 -20 -21 -20 -20 -20 -20 -20 -20
-15 -15 -14 -14 -14 -14 -14 -14 -14 -14 -14 -14 -14 -14 -14 -14 -14 -14 -14 -14 -15 -17 -20 -22 -22 -23 -22 -22 -22 -21 -21 -21 -21 -21 -21 -21 -20 -21 -20 -20 -20 -20 -20
-15 -14 -14 -14 -14 -15 -15 -15 -15 -14 -14 -14 -14 -14 -14 -14 -14 -14 -14 -15 -18 -20 -22 -23 -23 -23 -23 -22 -22 -21 -22 -22 -21 -21 -20 -21 -21 -21 -20 -20 -20 -20 -20
-15 -15 -14 -15 -15 -15 -15 -15 -14 -14 -14 -14 -14 -14 -14 -13 -14 -14 -15 -18 -21 -22 -23 -23 -23 -23 -23 -22 -22 -22 -22 -22 -22 -21 -21 -21 -21 -21 -21 -20 -20 -20 -21
-15 -15 -15 -15 -15 -15 -15 -14 -14 -14 -14 -14 -14 -14 -13 -14 -14 -15 -17 -20 -22 -22 -22 -22 -22 -22 -23 -22 -22 -22 -22 -22 -22 -22 -22 -21 -21 -21 -21 -21 -21 -21 -22
-16 -16 -16 -16 -15 -15 -15 -14 -14 -14 -14 -14 -14 -13 -14 -14 -14 -16 -19 -21 -22 -22 -22 -22 -22 -22 -22 -22 -22 -22 -22 -22 -22 -22 -22 -22 -22 -22 -22 -22 -22 -22 -22
-16 -16 -16 -16 -15 -15 -15 -14 -14 -14 -14 -14 -14 -14 -14 -14 -15 -18 -20 -21 -21 -21 -22 -22 -22 -22 -22 -22 -22 -22 -22 -22 -22 -22 -22 -22 -22 -22 -22 -22 -22 -22 -22
-17 -16 -16 -16 -15 -15 -15 -14 -15 -15 -14 -14 -14 -14 -15 -14 -16 -19 -21 -21 -21 -21 -22 -22 -22 -22 -22 -22 -23 -22 -22 -22 -22 -23 -23 -23 -23 -23 -23 -23 -23 -23 -23
-17 -16 -16 -16 -15 -15 -15 -15 -15 -15 -15 -14 -15 -15 -15 -16 -18 -21 -21 -21 -21 -21 -22 -22 -22 -22 -22 -22 -22 -22 -23 -23 -23 -23 -23 -23 -23 -24 -24 -24 -24 -24 -24
-17 -17 -16 -16 -16 -16 -15 -15 -15 -15 -15 -15 -15 -15 -16 -17 -20 -21 -21 -22 -22 -22 -22 -22 -22 -23 -23 -23 -23 -23 -23 -23 -24 -24 -24 -24 -25 -25 -25 -25 -25 -25 -25
-17 -17 -16 -16 -16 -16 -16 -15 -15 -15 -15 -15 -15 -16 -16 -19 -21 -21 -21 -21 -22 -22 -23 -23 -23 -23 -23 -24 -24 -24 -25 -25 -25 -26 -26 -26 -26 -26 -26 -26 -26 -26 -26
-17 -17 -17 -17 -16 -16 -16 -16 -15 -15 -15 -15 -16 -16 -17 -19 -21 -21 -21 -22 -22 -23 -23 -23 -24 -24 -25 -26 -26 -26 -26 -26 -26 -26 -26 -27 -27 -27 -27 -27 -27 -27 -28
-17 -17 -17 -17 -17 -16 -16 -16 -16 -16 -15 -16 -16 -16 -17 -20 -21 -22 -22 -23 -23 -23 -23 -24 -25 -25 -26 -26 -26 -26 -26 -26 -26 -26 -26 -27 -28 -27 -27 -28 -28 -29 -28
-18 -17 -17 -17 -17 -17 -16 -16 -16 -16 -16 -16 -16 -16 -17 -20 -21 -22 -22 -23 -23 -23 -24 -24 -25 -26 -26 -26 -26 -25 -26 -26 -26 -26 -27 -27 -28 -28 -28 -28 -28 -28 -28
-18 -17 -17 -17 -17 -17 -17 -16 -16 -16 -16 -16 -17 -17 -18 -20 -22 -22 -23 -23 -23 -23 -24 -25 -25 -25 -25 -26 -26 -26 -26 -26 -26 -26 -27 -27 -27 -28 -28 -28 -28 -27 -27
-18 -18 -18 -17 -17 -17 -17 -17 -17 -16 -16 -17 -17 -17 -18 -21 -22 -23 -23 -23 -24 -24 -24 -24 -25 -25 -25 -25 -26 -26 -26 -26 -26 -26 -26 -27 -27 -27 -27 -27 -27 -27 -27
-18 -18 -18 -18 -17 -17 -17 -17 -17 -17 -17 -17 -17 -17 -18 -20 -22 -23 -23 -23 -24 -24 -24 -25 -25 -25 -25 -25 -25 -25 -26 -26 -26 -26 -26 -26 -26 -26 -27 -27 -26 -26 -27
-18 -18 -18 -18 -17 -17 -17 -17 -17 -17 -17 -17 -17 -18 -18 -20 -22 -23 -23 -24 -24 -24 -25 -25 -25 -25 -25 -25 -25 -25 -25 -25 -26 -26 -26 -26 -26 -26 -26 -27 -27 -27 -27
-18 -18 -18 -18 -17 -18 -17 -17 -17 -17 -17 -17 -18 -18 -18 -20 -22 -23 -23 -24 -24 -25 -25 -25 -25 -25 -25 -25 -25 -25 -25 -25 -25 -26 -26 -26 -26 -27 -27 -27 -27 -27 -27
-18 -18 -18 -18 -18 -18 -18 -18 -17 -17 -17 -18 -18 -18 -18 -20 -22 -23 -24 -24 -24 -25 -25 -25 -25 -25 -25 -25 -25 -25 -25 -25 -25 -25 -25 -26 -26 -26 -26 -27 -27 -27 -27
-18 -18 -18 -18 -18 -18 -18 -18 -18 -17 -18 -18 -18 -18 -19 -20 -22 -24 -24 -24 -24 -25 -25 -25 -25 -25 -25 -25 -25 -25 -25 -25 -25 -25 -25 -25 -26 -26 -26 -26 -26 -26 -27

GFSGL_500_temp_117.txt.gz
Temp
-14 -13 -13 -14 -14 -13 -13 -13 -13 -13 -14 -13 -13 -13 -13 -14 -14 -14 -13 -13 -13 -13 -13 -14 -14 -14 -14 -14 -14 -14 -14 -14 -14 -15 -15 -15 -16 -16 -16 -17 -18 -18 -18
-14 -14 -14 -14 -14 -13 -13 -14 -14 -14 -14 -13 -13 -13 -13 -13 -13 -14 -14 -14 -14 -14 -14 -14 -14 -14 -14 -14 -15 -15 -15 -15 -16 -16 -16 -17 -18 -18 -19 -19 -19 -19 -19
-14 -13 -14 -13 -14 -14 -14 -14 -14 -14 -14 -14 -14 -14 -14 -14 -14 -14 -14 -14 -14 -14 -14 -14 -14 -14 -14 -15 -16 -16 -16 -17 -17 -18 -18 -19 -20 -21 -21 -20 -20 -20 -20
-14 -14 -13 -13 -15 -15 -14 -14 -14 -14 -14 -14 -14 -14 -14 -14 -14 -14 -14 -14 -14 -14 -14 -14 -14 -15 -15 -16 -17 -18 -18 -19 -19 -20 -21 -21 -21 -21 -20 -20 -20 -20 -20
-14 -14 -15 -15 -14 -14 -14 -14 -14 -14 -14 -14 -14 -14 -14 -14 -14 -14 -14 -14 -14 -14 -14 -14 -14 -15 -17 -18 -19 -19 -20 -21 -22 -22 -22 -21 -22 -22 -21 -21 -20 -21 -20
-14 -14 -14 -14 -14 -14 -14 -14 -14 -14 -14 -14 -14 -14 -14 -14 -14 -14 -14 -14 -14 -13 -13 -14 -16 -18 -19 -20 -21 -22 -23 -23 -22 -22 -22 -22 -23 -22 -21 -21 -21 -21 -20
-15 -15 -14 -14 -14 -14 -14 -14 -14 -15 -14 -14 -14 -14 -14 -14 -14 -14 -14 -14 -13 -13 -13 -15 -19 -21 -22 -22 -23 -23 -23 -23 -23 -22 -22 -22 -22 -22 -21 -21 -21 -20 -20
-15 -15 -15 -15 -14 -14 -15 -15 -15 -15 -15 -14 -15 -15 -14 -14 -14 -14 -14 -14 -13 -14 -16 -20 -21 -21 -21 -21 -22 -22 -22 -22 -22 -22 -22 -22 -22 -22 -22 -21 -21 -21 -20
-15 -15 -15 -15 -15 -15 -16 -15 -15 -15 -15 -15 -15 -14 -14 -14 -14 -14 -14 -14 -14 -16 -18 -21 -21 -21 -21 -21 -21 -21 -22 -22 -22 -22 -22 -22 -22 -22 -22 -21 -21 -21 -21
-16 -16 -16 -16 -16 -16 -16 -15 -15 -15 -15 -15 -15 -14 -14 -14 -14 -14 -14 -14 -15 -17 -20 -21 -21 -21 -21 -21 -21 -22 -22 -22 -22 -22 -22 -22 -22 -22 -22 -22 -21 -21 -21
-16 -16 -16 -17 -16 -16 -16 -15 -15 -15 -15 -15 -15 -14 -14 -14 -14 -14 -14 -15 -17 -20 -20 -21 -21 -21 -21 -21 -21 -21 -22 -22 -22 -22 -22 -22 -22 -22 -22 -22 -22 -22 -22
-17 -17 -17 -17 -16 -16 -16 -15 -15 -15 -15 -15 -15 -14 -14 -14 -14 -15 -15 -16 -18 -20 -20 -21 -21 -21 -22 -22 -22 -22 -22 -22 -22 -23 -23 -23 -23 -23 -23 -23 -23 -23 -23
-17 -17 -17 -17 -16 -16 -16 -16 -15 -15 -15 -15 -15 -15 -14 -14 -15 -15 -15 -16 -19 -20 -21 -21 -21 -22 -22 -22 -22 -22 -22 -23 -23 -23 -24 -24 -24 -24 -24 -24 -24 -24 -24
-17 -17 -17 -17 -17 -16 -16 -16 -16 -16 -15 -15 -15 -15 -14 -15 -15 -15 -16 -18 -20 -21 -21 -21 -22 -22 -22 -22 -23 -23 -24 -24 -24 -25 -25 -25 -25 -25 -25 -25 -25 -25 -25
-17 -17 -17 -17 -17 -17 -16 -16 -16 -16 -15 -15 -15 -15 -15 -15 -16 -16 -17 -19 -21 -21 -22 -22 -22 -22 -23 -24 -25 -26 -26 -26 -26 -26 -26 -26 -26 -26 -26 -26 -26 -26 -26
-17 -18 -17 -17 -17 -17 -16 -16 -16 -16 -16 -16 -16 -16 -15 -16 -16 -16 -17 -19 -21 -22 -22 -22 -23 -23 -24 -25 -26 -25 -25 -25 -25 -25 -26 -26 -26 -26 -26 -27 -27 -27 -27
-18 -18 -17 -17 -17 -17 -17 -16 -16 -16 -16 -16 -16 -16 -16 -16 -16 -17 -18 -20 -22 -22 -22 -23 -23 -24 -24 -25 -25 -25 -25 -25 -26 -26 -26 -26 -26 -27 -27 -28 -28 -27 -28
-18 -18 -18 -18 -17 -17 -17 -16 -16 -16 -16 -16 -16 -16 -16 -16 -17 -17 -19 -21 -22 -22 -23 -23 -23 -24 -24 -25 -25 -25 -25 -25 -25 -25 -26 -26 -26 -27 -27 -28 -28 -28 -28
-18 -18 -18 -18 -17 -17 -17 -17 -17 -16 -17 -16 -17 -16 -16 -17 -17 -18 -20 -22 -22 -23 -23 -24 -24 -24 -24 -24 -25 -25 -25 -25 -25 -26 -26 -26 -26 -26 -27 -28 -28 -28 -28
-18 -18 -18 -18 -18 -17 -17 -17 -17 -17 -17 -17 -17 -17 -17 -17 -17 -18 -20 -22 -23 -23 -23 -24 -24 -24 -24 -24 -25 -25 -25 -25 -25 -26 -26 -26 -26 -26 -27 -27 -27 -27 -27
-18 -18 -18 -18 -18 -17 -17 -17 -17 -17 -17 -17 -17 -17 -17 -17 -18 -18 -20 -22 -23 -23 -24 -24 -24 -24 -24 -25 -25 -25 -25 -25 -25 -25 -26 -26 -26 -26 -26 -27 -27 -27 -27
-18 -18 -18 -18 -18 -18 -18 -18 -17 -17 -17 -17 -18 -17 -18 -18 -18 -19 -21 -23 -23 -24 -24 -24 -24 -24 -25 -25 -25 -25 -25 -25 -25 -25 -26 -26 -26 -26 -26 -26 -27 -27 -27
-18 -18 -18 -18 -18 -18 -18 -18 -18 -18 -18 -18 -18 -18 -18 -18 -18 -19 -21 -23 -24 -24 -24 -24 -25 -24 -24 -25 -25 -25 -25 -25 -25 -25 -25 -25 -26 -26 -26 -27 -27 -27 -27
-18 -18 -18 -18 -18 -18 -18 -18 -18 -18 -18 -18 -18 -18 -18 -18 -18 -19 -21 -23 -24 -24 -24 -25 -25 -25 -25 -25 -25 -25 -25 -25 -25 -25 -25 -25 -25 -26 -26 -26 -26 -27 -27
-19 -18 -18 -18 -18 -18 -18 -18 -18 -18 -18 -18 -18 -18 -18 -18 -18 -19 -21 -23 -24 -24 -24 -25 -25 -25 -25 -24 -25 -25 -25 -25 -25 -25 -25 -25 -25 -25 -25 -26 -26 -26 -26
-19 -19 -18 -18 -18 -18 -18 -18 -18 -18 -18 -18 -18 -18 -19 -19 -19 -19 -21 -23 -24 -24 -24 -25 -25 -25 -25 -24 -25 -25 -25 -25 -25 -25 -25 -25 -25 -25 -25 -26 -26 -26 -26